ARKTIKA-M 1

Last updated on Fri Dec 20 2024 00:02:20 GMT+0000 (Coordinated Universal Time)

1 47719U 21016A 24346.21013880 .00000144 00000+0 00000+0 0 9997 2 47719 63.1345 131.0499 7012162 268.4789 17.4348 2.00604149 27701
UTC large
Height (km)
Speed (km/s)
/
Latitude / Longitude
Inclination (degrees)
Orbital Period (minutes)
Azimuth
Elevation
Range (km)
Doppler Factor

Next 0 passes for location: London (51.5072 / 0.1276)

Sorry there are no passes over London.